Time,TemperatureF,DewpointF,PressureIn,WindDirection,WindDirectionDegrees,WindSpeedMPH,WindSpeedGustMPH,Humidity,HourlyPrecipIn,Conditions,Clouds,dailyrainin,SolarRadiationWatts/m^2,SoftwareType,DateUTC
2013-09-06 00:00:00,58.4,55.2,30.00,SW,232,7.0,7.0,89,0.00,,,0.00,0,Wunderground v.1.15,2013-09-06 07:00:00,
2013-09-06 00:06:00,58.5,55.3,30.00,SW,229,7.0,14.0,89,0.00,,,0.00,0,Wunderground v.1.15,2013-09-06 07:06:00,
2013-09-06 00:11:00,58.6,55.4,30.00,SW,235,7.0,14.0,89,0.00,,,0.00,0,Wunderground v.1.15,2013-09-06 07:11:00,
2013-09-06 00:17:00,58.6,55.4,30.01,SSW,209,7.0,14.0,89,0.00,,,0.00,0,Wunderground v.1.15,2013-09-06 07:17:00,
2013-09-06 00:22:00,58.5,55.6,30.00,SW,236,7.0,14.0,90,0.00,,,0.00,0,Wunderground v.1.15,2013-09-06 07:22:00,
2013-09-06 00:27:00,58.5,55.6,30.00,SW,215,8.0,14.0,90,0.00,,,0.00,0,Wunderground v.1.15,2013-09-06 07:27:00,
2013-09-06 00:32:00,58.3,55.4,30.01,SW,215,7.0,14.0,90,0.00,,,0.00,0,Wunderground v.1.15,2013-09-06 07:32:00,
2013-09-06 00:38:00,58.2,55.6,30.01,SW,218,7.0,14.0,91,0.00,,,0.00,0,Wunderground v.1.15,2013-09-06 07:38:00,
2013-09-06 00:43:00,58.2,55.6,30.01,SW,224,7.0,14.0,91,0.00,,,0.00,0,Wunderground v.1.15,2013-09-06 07:43:00,
2013-09-06 00:49:00,58.1,55.5,30.01,SW,232,7.0,14.0,91,0.00,,,0.00,0,Wunderground v.1.15,2013-09-06 07:49:00,
2013-09-06 00:54:00,58.1,55.5,30.01,SW,225,8.0,14.0,91,0.00,,,0.00,0,Wunderground v.1.15,2013-09-06 07:54:00,
2013-09-06 01:00:00,58.0,55.4,30.01,SW,227,8.0,14.0,91,0.00,,,0.00,0,Wunderground v.1.15,2013-09-06 08:00:00,
2013-09-06 01:05:00,57.9,55.6,30.01,WSW,239,8.0,14.0,92,0.00,,,0.00,0,Wunderground v.1.15,2013-09-06 08:05:00,
2013-09-06 01:10:00,57.8,55.5,30.01,SW,218,8.0,14.0,92,0.00,,,0.00,0,Wunderground v.1.15,2013-09-06 08:10:00,
2013-09-06 01:16:00,57.7,55.4,30.00,SSW,202,8.0,14.0,92,0.00,,,0.00,0,Wunderground v.1.15,2013-09-06 08:16:00,
2013-09-06 01:21:00,57.6,55.3,30.00,SSW,207,8.0,14.0,92,0.00,,,0.00,0,Wunderground v.1.15,2013-09-06 08:21:00,
2013-09-06 01:27:00,57.5,55.2,30.00,SW,231,7.0,14.0,92,0.00,,,0.00,0,Wunderground v.1.15,2013-09-06 08:27:00,
2013-09-06 01:32:00,57.5,55.5,30.00,SW,220,7.0,14.0,93,0.00,,,0.00,0,Wunderground v.1.15,2013-09-06 08:32:00,
2013-09-06 01:37:00,57.4,55.4,30.00,WSW,246,6.0,14.0,93,0.00,,,0.00,0,Wunderground v.1.15,2013-09-06 08:37:00,
2013-09-06 01:43:00,57.4,55.4,30.00,SW,230,6.0,14.0,93,0.00,,,0.00,0,Wunderground v.1.15,2013-09-06 08:43:00,
2013-09-06 01:48:00,57.3,55.3,30.00,SW,234,6.0,14.0,93,0.00,,,0.00,0,Wunderground v.1.15,2013-09-06 08:48:00,
2013-09-06 01:54:00,57.3,55.3,30.00,SW,224,5.0,14.0,93,0.00,,,0.00,0,Wunderground v.1.15,2013-09-06 08:54:00,
2013-09-06 02:00:00,57.3,55.3,30.00,SW,227,5.0,14.0,93,0.00,,,0.00,0,Wunderground v.1.15,2013-09-06 09:00:00,
2013-09-06 02:05:00,57.2,55.2,30.00,SW,218,4.0,14.0,93,0.00,,,0.00,0,Wunderground v.1.15,2013-09-06 09:05:00,
2013-09-06 02:10:00,57.2,55.2,30.00,SW,218,3.0,3.0,93,0.00,,,0.00,0,Wunderground v.1.15,2013-09-06 09:10:00,
2013-09-06 02:16:00,57.1,55.1,30.00,SW,218,1.0,14.0,93,0.00,,,0.00,0,Wunderground v.1.15,2013-09-06 09:16:00,
2013-09-06 02:21:00,57.0,55.0,30.00,SW,217,0.0,14.0,93,0.00,,,0.00,0,Wunderground v.1.15,2013-09-06 09:21:00,
2013-09-06 02:27:00,56.9,54.9,30.00,SW,218,0.0,14.0,93,0.00,,,0.00,0,Wunderground v.1.15,2013-09-06 09:27:00,
2013-09-06 02:32:00,56.9,54.9,30.00,SW,218,0.0,14.0,93,0.00,,,0.00,0,Wunderground v.1.15,2013-09-06 09:32:00,
2013-09-06 02:37:00,56.8,55.1,30.00,SW,218,0.0,14.0,94,0.00,,,0.00,0,Wunderground v.1.15,2013-09-06 09:37:00,
2013-09-06 02:43:00,56.8,55.1,29.99,SW,217,0.0,14.0,94,0.00,,,0.00,0,Wunderground v.1.15,2013-09-06 09:43:00,
2013-09-06 02:48:00,56.7,55.0,29.99,SW,218,0.0,14.0,94,0.00,,,0.00,0,Wunderground v.1.15,2013-09-06 09:48:00,
2013-09-06 02:53:00,56.7,55.0,29.99,SW,218,0.0,14.0,94,0.00,,,0.00,0,Wunderground v.1.15,2013-09-06 09:53:00,
2013-09-06 02:58:00,56.6,54.9,29.99,SW,218,0.0,14.0,94,0.00,,,0.00,0,Wunderground v.1.15,2013-09-06 09:58:00,
2013-09-06 03:03:00,56.6,54.9,29.99,SW,218,0.0,0.0,94,0.00,,,0.00,0,Wunderground v.1.15,2013-09-06 10:03:00,
2013-09-06 03:09:00,56.7,55.0,29.99,SW,218,0.0,0.0,94,0.00,,,0.00,0,Wunderground v.1.15,2013-09-06 10:09:00,
2013-09-06 03:14:00,56.6,54.9,29.99,SW,218,0.0,0.0,94,0.00,,,0.00,0,Wunderground v.1.15,2013-09-06 10:14:00,
2013-09-06 03:20:00,56.6,54.9,29.98,SW,218,0.0,0.0,94,0.00,,,0.00,0,Wunderground v.1.15,2013-09-06 10:20:00,
2013-09-06 03:25:00,56.6,54.9,29.99,SW,218,0.0,0.0,94,0.00,,,0.00,0,Wunderground v.1.15,2013-09-06 10:25:00,
2013-09-06 03:30:00,56.7,55.0,29.98,SW,218,0.0,0.0,94,0.00,,,0.00,0,Wunderground v.1.15,2013-09-06 10:30:00,
2013-09-06 03:36:00,56.7,55.0,29.98,SW,218,0.0,0.0,94,0.00,,,0.00,0,Wunderground v.1.15,2013-09-06 10:36:00,
2013-09-06 03:41:00,56.7,55.0,29.98,SW,218,0.0,0.0,94,0.00,,,0.00,0,Wunderground v.1.15,2013-09-06 10:41:00,
2013-09-06 03:46:00,56.6,54.9,29.98,SW,218,0.0,0.0,94,0.00,,,0.00,0,Wunderground v.1.15,2013-09-06 10:46:00,
2013-09-06 03:52:00,56.6,54.9,29.98,SW,218,0.0,0.0,94,0.00,,,0.00,0,Wunderground v.1.15,2013-09-06 10:52:00,
2013-09-06 03:57:00,56.5,54.8,29.98,SW,218,0.0,0.0,94,0.00,,,0.00,0,Wunderground v.1.15,2013-09-06 10:57:00,
2013-09-06 04:03:00,56.4,54.4,29.97,SW,218,0.0,0.0,93,0.00,,,0.00,0,Wunderground v.1.15,2013-09-06 11:03:00,
2013-09-06 04:08:00,56.3,54.3,29.97,SW,218,0.0,0.0,93,0.00,,,0.00,0,Wunderground v.1.15,2013-09-06 11:08:00,
2013-09-06 04:13:00,56.3,54.3,29.97,SW,218,0.0,0.0,93,0.00,,,0.00,0,Wunderground v.1.15,2013-09-06 11:13:00,
2013-09-06 04:19:00,56.2,54.2,29.97,SW,218,0.0,0.0,93,0.00,,,0.00,0,Wunderground v.1.15,2013-09-06 11:19:00,
2013-09-06 04:24:00,56.4,54.4,29.97,SW,218,0.0,0.0,93,0.00,,,0.00,0,Wunderground v.1.15,2013-09-06 11:24:00,
2013-09-06 04:30:00,56.6,54.6,29.97,SW,218,0.0,0.0,93,0.00,,,0.00,0,Wunderground v.1.15,2013-09-06 11:30:00,
2013-09-06 04:35:00,56.9,54.6,29.98,SW,218,0.0,0.0,92,0.00,,,0.00,0,Wunderground v.1.15,2013-09-06 11:35:00,
2013-09-06 04:40:00,57.0,54.7,29.98,SW,218,0.0,0.0,92,0.00,,,0.00,0,Wunderground v.1.15,2013-09-06 11:40:00,
2013-09-06 04:45:00,57.0,54.4,29.98,SE,130,0.0,0.0,91,0.00,,,0.00,0,Wunderground v.1.15,2013-09-06 11:45:00,
2013-09-06 04:51:00,57.1,54.5,29.97,SE,130,0.0,0.0,91,0.00,,,0.00,0,Wunderground v.1.15,2013-09-06 11:51:00,
2013-09-06 04:57:00,57.1,54.2,29.97,SE,130,0.0,0.0,90,0.00,,,0.00,0,Wunderground v.1.15,2013-09-06 11:57:00,
2013-09-06 05:03:00,57.3,54.1,29.97,SE,130,0.0,0.0,89,0.00,,,0.00,0,Wunderground v.1.15,2013-09-06 12:03:00,
2013-09-06 05:08:00,57.4,54.2,29.97,SE,130,0.0,0.0,89,0.00,,,0.00,0,Wunderground v.1.15,2013-09-06 12:08:00,
2013-09-06 05:14:00,57.5,54.0,29.97,SE,130,0.0,0.0,88,0.00,,,0.00,0,Wunderground v.1.15,2013-09-06 12:14:00,
2013-09-06 05:19:00,57.7,53.9,29.97,SE,130,0.0,0.0,87,0.00,,,0.00,0,Wunderground v.1.15,2013-09-06 12:19:00,
2013-09-06 05:24:00,57.9,54.1,29.97,SE,130,0.0,0.0,87,0.00,,,0.00,0,Wunderground v.1.15,2013-09-06 12:24:00,
2013-09-06 05:30:00,58.2,54.0,29.97,SE,130,0.0,0.0,86,0.00,,,0.00,0,Wunderground v.1.15,2013-09-06 12:30:00,
2013-09-06 05:35:00,58.3,53.8,29.97,SE,130,0.0,0.0,85,0.00,,,0.00,0,Wunderground v.1.15,2013-09-06 12:35:00,
2013-09-06 05:40:00,58.4,53.9,29.97,SE,130,0.0,0.0,85,0.00,,,0.00,0,Wunderground v.1.15,2013-09-06 12:40:00,
2013-09-06 05:46:00,58.4,53.9,29.97,SE,130,0.0,0.0,85,0.00,,,0.00,0,Wunderground v.1.15,2013-09-06 12:46:00,
2013-09-06 05:51:00,58.5,53.7,29.96,SE,130,0.0,0.0,84,0.00,,,0.00,0,Wunderground v.1.15,2013-09-06 12:51:00,
2013-09-06 05:56:00,58.6,53.8,29.97,SE,130,0.0,0.0,84,0.00,,,0.00,0,Wunderground v.1.15,2013-09-06 12:56:00,
2013-09-06 06:02:00,58.7,53.5,29.97,SE,130,0.0,0.0,83,0.00,,,0.00,0,Wunderground v.1.15,2013-09-06 13:02:00,
2013-09-06 06:07:00,58.8,53.6,29.97,SE,130,0.0,0.0,83,0.00,,,0.00,0,Wunderground v.1.15,2013-09-06 13:07:00,
2013-09-06 06:13:00,59.1,53.6,29.97,SE,130,0.0,0.0,82,0.00,,,0.00,0,Wunderground v.1.15,2013-09-06 13:13:00,
2013-09-06 06:19:00,59.4,53.6,29.97,SE,130,0.0,0.0,81,0.00,,,0.00,0,Wunderground v.1.15,2013-09-06 13:19:00,
2013-09-06 06:24:00,59.6,53.4,29.97,SE,130,0.0,0.0,80,0.00,,,0.00,0,Wunderground v.1.15,2013-09-06 13:24:00,
2013-09-06 06:30:00,59.8,53.6,29.97,SE,130,0.0,0.0,80,0.00,,,0.00,0,Wunderground v.1.15,2013-09-06 13:30:00,
2013-09-06 06:35:00,60.0,53.5,29.97,SE,130,0.0,0.0,79,0.00,,,0.00,0,Wunderground v.1.15,2013-09-06 13:35:00,
2013-09-06 06:40:00,60.0,53.5,29.97,SE,130,0.0,0.0,79,0.00,,,0.00,0,Wunderground v.1.15,2013-09-06 13:40:00,
2013-09-06 06:46:00,60.0,53.5,29.97,SE,130,0.0,0.0,79,0.00,,,0.00,5,Wunderground v.1.15,2013-09-06 13:46:00,
2013-09-06 06:51:00,59.9,53.4,29.97,SE,129,0.0,0.0,79,0.00,,,0.00,7,Wunderground v.1.15,2013-09-06 13:51:00,
2013-09-06 06:57:00,59.8,53.3,29.98,SE,129,0.0,0.0,79,0.00,,,0.00,11,Wunderground v.1.15,2013-09-06 13:57:00,
2013-09-06 07:02:00,59.7,53.2,29.98,SE,129,0.0,0.0,79,0.00,,,0.00,12,Wunderground v.1.15,2013-09-06 14:02:00,
2013-09-06 07:07:00,59.6,53.1,29.98,SE,130,0.0,0.0,79,0.00,,,0.00,14,Wunderground v.1.15,2013-09-06 14:07:00,
2013-09-06 07:13:00,59.8,53.3,29.98,SE,146,2.0,4.0,79,0.00,,,0.00,16,Wunderground v.1.15,2013-09-06 14:13:00,
2013-09-06 07:18:00,60.1,53.2,29.98,SE,133,4.0,8.0,78,0.00,,,0.00,18,Wunderground v.1.15,2013-09-06 14:18:00,
2013-09-06 07:24:00,60.5,53.3,29.98,SE,128,2.0,4.0,77,0.00,,,0.00,25,Wunderground v.1.15,2013-09-06 14:24:00,
2013-09-06 07:30:00,61.2,53.6,29.98,SE,127,0.0,0.0,76,0.00,,,0.00,40,Wunderground v.1.15,2013-09-06 14:30:00,
2013-09-06 07:36:00,61.6,53.6,29.98,ESE,123,0.0,0.0,75,0.00,,,0.00,49,Wunderground v.1.15,2013-09-06 14:36:00,
2013-09-06 07:42:00,61.9,53.9,29.98,SE,126,0.0,0.0,75,0.00,,,0.00,58,Wunderground v.1.15,2013-09-06 14:42:00,
2013-09-06 07:48:00,62.2,54.2,29.98,SE,126,0.0,0.0,75,0.00,,,0.00,84,Wunderground v.1.15,2013-09-06 14:48:00,
2013-09-06 07:53:00,62.5,54.5,29.98,SE,126,0.0,0.0,75,0.00,,,0.00,107,Wunderground v.1.15,2013-09-06 14:53:00,
2013-09-06 07:59:00,62.9,54.5,29.98,SE,126,0.0,0.0,74,0.00,,,0.00,116,Wunderground v.1.15,2013-09-06 14:59:00,
2013-09-06 08:04:00,63.1,54.7,29.98,SE,126,0.0,0.0,74,0.00,,,0.00,155,Wunderground v.1.15,2013-09-06 15:04:00,
2013-09-06 08:09:00,63.5,54.7,29.99,SE,126,0.0,0.0,73,0.00,,,0.00,174,Wunderground v.1.15,2013-09-06 15:09:00,
2013-09-06 08:15:00,63.6,54.8,29.99,SE,126,0.0,0.0,73,0.00,,,0.00,165,Wunderground v.1.15,2013-09-06 15:15:00,
2013-09-06 08:20:00,63.7,54.5,29.99,SE,126,0.0,0.0,72,0.00,,,0.00,223,Wunderground v.1.15,2013-09-06 15:20:00,
2013-09-06 08:26:00,63.7,54.5,29.99,SE,126,0.0,0.0,72,0.00,,,0.00,244,Wunderground v.1.15,2013-09-06 15:26:00,
2013-09-06 08:31:00,63.7,54.9,30.00,SE,126,0.0,0.0,73,0.00,,,0.00,258,Wunderground v.1.15,2013-09-06 15:31:00,
2013-09-06 08:37:00,63.7,54.9,30.00,East,85,0.0,3.0,73,0.00,,,0.00,269,Wunderground v.1.15,2013-09-06 15:37:00,
2013-09-06 08:42:00,63.9,54.7,29.99,ESE,107,1.0,4.0,72,0.00,,,0.00,237,Wunderground v.1.15,2013-09-06 15:42:00,
2013-09-06 08:48:00,64.7,54.3,29.99,ESE,113,2.0,4.0,69,0.00,,,0.00,209,Wunderground v.1.15,2013-09-06 15:48:00,
2013-09-06 08:53:00,65.3,54.5,29.99,East,95,2.0,11.0,68,0.00,,,0.00,241,Wunderground v.1.15,2013-09-06 15:53:00,
2013-09-06 08:59:00,66.0,54.7,29.99,ENE,70,3.0,11.0,67,0.00,,,0.00,294,Wunderground v.1.15,2013-09-06 15:59:00,
2013-09-06 09:05:00,66.6,54.5,29.99,ESE,117,3.0,9.0,65,0.00,,,0.00,302,Wunderground v.1.15,2013-09-06 16:05:00,
2013-09-06 09:10:00,67.1,54.1,29.99,SE,134,5.0,11.0,63,0.00,,,0.00,313,Wunderground v.1.15,2013-09-06 16:10:00,
2013-09-06 09:15:00,67.7,53.8,29.99,East,92,7.0,11.0,61,0.00,,,0.00,325,Wunderground v.1.15,2013-09-06 16:15:00,
2013-09-06 09:21:00,68.3,53.9,29.99,ENE,74,6.0,9.0,60,0.00,,,0.00,327,Wunderground v.1.15,2013-09-06 16:21:00,
2013-09-06 09:27:00,69.0,54.1,29.99,East,92,5.0,10.0,59,0.00,,,0.00,341,Wunderground v.1.15,2013-09-06 16:27:00,
2013-09-06 09:32:00,69.5,54.1,29.99,ENE,71,5.0,5.0,58,0.00,,,0.00,360,Wunderground v.1.15,2013-09-06 16:32:00,
2013-09-06 09:38:00,70.0,53.6,29.99,ESE,103,6.0,13.0,56,0.00,,,0.00,373,Wunderground v.1.15,2013-09-06 16:38:00,
2013-09-06 09:43:00,70.3,53.4,29.99,East,84,6.0,7.0,55,0.00,,,0.00,380,Wunderground v.1.15,2013-09-06 16:43:00,
2013-09-06 09:49:00,70.7,52.7,29.99,NE,53,5.0,11.0,53,0.00,,,0.00,422,Wunderground v.1.15,2013-09-06 16:49:00,
2013-09-06 09:54:00,70.8,52.8,29.99,ENE,71,5.0,9.0,53,0.00,,,0.00,524,Wunderground v.1.15,2013-09-06 16:54:00,
2013-09-06 10:00:00,71.0,53.0,29.99,East,91,6.0,6.0,53,0.00,,,0.00,522,Wunderground v.1.15,2013-09-06 17:00:00,
2013-09-06 10:05:00,71.2,52.7,29.99,East,96,6.0,12.0,52,0.00,,,0.00,513,Wunderground v.1.15,2013-09-06 17:05:00,
2013-09-06 10:11:00,71.6,53.0,29.99,NE,48,6.0,7.0,52,0.00,,,0.00,547,Wunderground v.1.15,2013-09-06 17:11:00,
2013-09-06 10:16:00,71.9,52.8,29.99,NE,53,6.0,12.0,51,0.00,,,0.00,547,Wunderground v.1.15,2013-09-06 17:16:00,
2013-09-06 10:22:00,72.2,52.5,29.99,NE,44,6.0,7.0,50,0.00,,,0.00,582,Wunderground v.1.15,2013-09-06 17:22:00,
2013-09-06 10:27:00,72.5,52.2,29.99,ENE,57,5.0,13.0,49,0.00,,,0.00,496,Wunderground v.1.15,2013-09-06 17:27:00,
2013-09-06 10:33:00,72.8,52.5,29.99,ESE,103,7.0,9.0,49,0.00,,,0.00,555,Wunderground v.1.15,2013-09-06 17:33:00,
2013-09-06 10:39:00,73.2,52.9,29.98,NE,55,7.0,12.0,49,0.00,,,0.00,520,Wunderground v.1.15,2013-09-06 17:39:00,
2013-09-06 10:44:00,73.6,52.1,29.98,NE,48,7.0,9.0,47,0.00,,,0.00,647,Wunderground v.1.15,2013-09-06 17:44:00,
2013-09-06 10:49:00,74.0,52.5,29.98,East,88,6.0,10.0,47,0.00,,,0.00,524,Wunderground v.1.15,2013-09-06 17:49:00,
2013-09-06 10:55:00,74.3,52.2,29.98,ESE,108,7.0,12.0,46,0.00,,,0.00,557,Wunderground v.1.15,2013-09-06 17:55:00,
2013-09-06 11:01:00,74.7,52.5,29.98,East,94,8.0,13.0,46,0.00,,,0.00,589,Wunderground v.1.15,2013-09-06 18:01:00,
2013-09-06 11:06:00,75.1,52.3,29.98,ENE,70,7.0,13.0,45,0.00,,,0.00,621,Wunderground v.1.15,2013-09-06 18:06:00,
2013-09-06 11:11:00,75.7,52.8,29.98,NE,50,7.0,12.0,45,0.00,,,0.00,693,Wunderground v.1.15,2013-09-06 18:11:00,
2013-09-06 11:17:00,76.1,53.2,29.98,ENE,61,7.0,15.0,45,0.00,,,0.00,747,Wunderground v.1.15,2013-09-06 18:17:00,
2013-09-06 11:22:00,76.3,52.2,29.98,ESE,107,8.0,10.0,43,0.00,,,0.00,752,Wunderground v.1.15,2013-09-06 18:22:00,
2013-09-06 11:28:00,76.7,52.5,29.97,ENE,59,7.0,10.0,43,0.00,,,0.00,765,Wunderground v.1.15,2013-09-06 18:28:00,
2013-09-06 11:34:00,77.0,52.1,29.98,East,81,6.0,10.0,42,0.00,,,0.00,775,Wunderground v.1.15,2013-09-06 18:34:00,
2013-09-06 11:39:00,77.3,51.8,29.97,East,98,7.0,13.0,41,0.00,,,0.00,784,Wunderground v.1.15,2013-09-06 18:39:00,
2013-09-06 11:44:00,77.3,53.7,29.97,NNE,22,7.0,10.0,44,0.00,,,0.00,791,Wunderground v.1.15,2013-09-06 18:44:00,
2013-09-06 11:50:00,77.4,52.5,29.97,ENE,68,7.0,7.0,42,0.00,,,0.00,803,Wunderground v.1.15,2013-09-06 18:50:00,
2013-09-06 11:55:00,77.8,52.9,29.97,NE,53,5.0,10.0,42,0.00,,,0.00,810,Wunderground v.1.15,2013-09-06 18:55:00,
2013-09-06 12:01:00,78.5,52.8,29.97,ENE,72,4.0,5.0,41,0.00,,,0.00,814,Wunderground v.1.15,2013-09-06 19:01:00,
2013-09-06 12:06:00,78.9,51.8,29.97,East,98,5.0,11.0,39,0.00,,,0.00,824,Wunderground v.1.15,2013-09-06 19:06:00,
2013-09-06 12:12:00,78.9,51.8,29.97,NE,51,7.0,11.0,39,0.00,,,0.00,835,Wunderground v.1.15,2013-09-06 19:12:00,
2013-09-06 12:18:00,79.1,52.7,29.96,East,81,6.0,11.0,40,0.00,,,0.00,840,Wunderground v.1.15,2013-09-06 19:18:00,
2013-09-06 12:24:00,79.5,51.7,29.96,NE,53,5.0,11.0,38,0.00,,,0.00,844,Wunderground v.1.15,2013-09-06 19:24:00,
2013-09-06 12:29:00,79.8,51.9,29.96,ENE,65,6.0,11.0,38,0.00,,,0.00,854,Wunderground v.1.15,2013-09-06 19:29:00,
2013-09-06 12:35:00,80.3,50.9,29.96,East,98,6.0,10.0,36,0.00,,,0.00,856,Wunderground v.1.15,2013-09-06 19:35:00,
2013-09-06 12:41:00,80.9,58.8,29.95,NE,47,4.0,5.0,47,0.00,,,0.00,860,Wunderground v.1.15,2013-09-06 19:41:00,
2013-09-06 12:47:00,81.1,54.5,29.95,NNE,26,2.0,6.0,40,0.00,,,0.00,863,Wunderground v.1.15,2013-09-06 19:47:00,
2013-09-06 12:52:00,80.9,57.6,29.95,NE,35,2.0,2.0,45,0.00,,,0.00,865,Wunderground v.1.15,2013-09-06 19:52:00,
2013-09-06 12:58:00,80.6,59.1,29.95,NNE,15,4.0,9.0,48,0.00,,,0.00,867,Wunderground v.1.15,2013-09-06 19:58:00,
2013-09-06 13:03:00,80.5,59.0,29.94,NNE,33,4.0,5.0,48,0.00,,,0.00,870,Wunderground v.1.15,2013-09-06 20:03:00,
2013-09-06 13:08:00,80.5,58.4,29.94,NNE,30,2.0,5.0,47,0.00,,,0.00,875,Wunderground v.1.15,2013-09-06 20:08:00,
2013-09-06 13:14:00,80.8,58.1,29.94,North,360,3.0,6.0,46,0.00,,,0.00,874,Wunderground v.1.15,2013-09-06 20:14:00,
2013-09-06 13:20:00,81.5,53.4,29.93,NNE,13,2.0,2.0,38,0.00,,,0.00,874,Wunderground v.1.15,2013-09-06 20:20:00,
2013-09-06 13:25:00,82.0,57.9,29.93,North,360,2.0,5.0,44,0.00,,,0.00,868,Wunderground v.1.15,2013-09-06 20:25:00,
2013-09-06 13:30:00,82.4,55.0,29.93,East,84,2.0,2.0,39,0.00,,,0.00,875,Wunderground v.1.15,2013-09-06 20:30:00,
2013-09-06 13:36:00,83.6,57.4,29.93,ENE,71,1.0,3.0,41,0.00,,,0.00,872,Wunderground v.1.15,2013-09-06 20:36:00,
2013-09-06 13:42:00,84.0,57.1,29.93,West,261,2.0,4.0,40,0.00,,,0.00,874,Wunderground v.1.15,2013-09-06 20:42:00,
2013-09-06 13:47:00,83.9,58.3,29.93,NW,325,3.0,6.0,42,0.00,,,0.00,867,Wunderground v.1.15,2013-09-06 20:47:00,
2013-09-06 13:53:00,83.6,58.7,29.93,WSW,240,3.0,3.0,43,0.00,,,0.00,865,Wunderground v.1.15,2013-09-06 20:53:00,
2013-09-06 13:58:00,83.8,58.9,29.92,North,351,2.0,9.0,43,0.00,,,0.00,863,Wunderground v.1.15,2013-09-06 20:58:00,
2013-09-06 14:04:00,83.5,58.0,29.92,NE,34,5.0,13.0,42,0.00,,,0.00,860,Wunderground v.1.15,2013-09-06 21:04:00,
2013-09-06 14:09:00,82.8,57.4,29.92,NNE,33,7.0,13.0,42,0.00,,,0.00,854,Wunderground v.1.15,2013-09-06 21:09:00,
2013-09-06 14:14:00,82.6,57.8,29.92,NNE,31,6.0,10.0,43,0.00,,,0.00,847,Wunderground v.1.15,2013-09-06 21:14:00,
2013-09-06 14:20:00,82.5,57.7,29.92,North,5,6.0,6.0,43,0.00,,,0.00,840,Wunderground v.1.15,2013-09-06 21:20:00,
2013-09-06 14:25:00,82.5,57.1,29.91,NE,40,5.0,10.0,42,0.00,,,0.00,838,Wunderground v.1.15,2013-09-06 21:25:00,
2013-09-06 14:31:00,82.5,57.7,29.91,North,5,8.0,10.0,43,0.00,,,0.00,831,Wunderground v.1.15,2013-09-06 21:31:00,
2013-09-06 14:36:00,82.6,57.2,29.91,NW,312,8.0,10.0,42,0.00,,,0.00,823,Wunderground v.1.15,2013-09-06 21:36:00,
2013-09-06 14:41:00,82.8,57.4,29.91,North,10,7.0,10.0,42,0.00,,,0.00,817,Wunderground v.1.15,2013-09-06 21:41:00,
2013-09-06 14:47:00,82.9,57.5,29.91,North,9,7.0,10.0,42,0.00,,,0.00,810,Wunderground v.1.15,2013-09-06 21:47:00,
2013-09-06 14:52:00,83.2,57.7,29.90,North,360,6.0,9.0,42,0.00,,,0.00,802,Wunderground v.1.15,2013-09-06 21:52:00,
2013-09-06 14:58:00,83.2,57.7,29.90,North,5,6.0,10.0,42,0.00,,,0.00,793,Wunderground v.1.15,2013-09-06 21:58:00,
2013-09-06 15:03:00,83.5,56.6,29.90,NNW,333,6.0,9.0,40,0.00,,,0.00,784,Wunderground v.1.15,2013-09-06 22:03:00,
2013-09-06 15:08:00,83.6,56.7,29.90,NNW,344,5.0,11.0,40,0.00,,,0.00,772,Wunderground v.1.15,2013-09-06 22:08:00,
2013-09-06 15:14:00,83.5,56.6,29.90,NNE,30,7.0,9.0,40,0.00,,,0.00,763,Wunderground v.1.15,2013-09-06 22:14:00,
2013-09-06 15:19:00,83.6,56.7,29.89,NNE,26,7.0,9.0,40,0.00,,,0.00,752,Wunderground v.1.15,2013-09-06 22:19:00,
2013-09-06 15:25:00,83.7,56.8,29.89,North,5,6.0,11.0,40,0.00,,,0.00,744,Wunderground v.1.15,2013-09-06 22:25:00,
2013-09-06 15:30:00,83.7,56.8,29.89,NNW,344,7.0,7.0,40,0.00,,,0.00,735,Wunderground v.1.15,2013-09-06 22:30:00,
2013-09-06 15:35:00,83.6,56.7,29.89,North,355,7.0,10.0,40,0.00,,,0.00,722,Wunderground v.1.15,2013-09-06 22:35:00,
2013-09-06 15:41:00,83.6,56.0,29.89,NNE,19,7.0,10.0,39,0.00,,,0.00,707,Wunderground v.1.15,2013-09-06 22:41:00,
2013-09-06 15:47:00,83.6,56.7,29.89,North,5,6.0,10.0,40,0.00,,,0.00,694,Wunderground v.1.15,2013-09-06 22:47:00,
2013-09-06 15:52:00,83.7,56.8,29.89,North,355,6.0,8.0,40,0.00,,,0.00,682,Wunderground v.1.15,2013-09-06 22:52:00,
2013-09-06 15:57:00,83.6,56.0,29.89,North,5,7.0,11.0,39,0.00,,,0.00,668,Wunderground v.1.15,2013-09-06 22:57:00,
2013-09-06 16:03:00,83.4,55.8,29.88,NNW,348,7.0,9.0,39,0.00,,,0.00,656,Wunderground v.1.15,2013-09-06 23:03:00,
2013-09-06 16:08:00,83.2,55.7,29.88,NNE,22,8.0,10.0,39,0.00,,,0.00,643,Wunderground v.1.15,2013-09-06 23:08:00,
2013-09-06 16:14:00,83.1,55.6,29.88,NNE,17,7.0,10.0,39,0.00,,,0.00,629,Wunderground v.1.15,2013-09-06 23:14:00,
2013-09-06 16:19:00,82.9,55.4,29.88,NNW,348,7.0,10.0,39,0.00,,,0.00,615,Wunderground v.1.15,2013-09-06 23:19:00,
2013-09-06 16:24:00,83.1,54.9,29.88,North,360,6.0,9.0,38,0.00,,,0.00,605,Wunderground v.1.15,2013-09-06 23:24:00,
2013-09-06 16:30:00,83.3,55.8,29.87,NNW,341,6.0,8.0,39,0.00,,,0.00,585,Wunderground v.1.15,2013-09-06 23:30:00,
2013-09-06 16:35:00,83.5,55.2,29.87,NNE,30,5.0,9.0,38,0.00,,,0.00,571,Wunderground v.1.15,2013-09-06 23:35:00,
2013-09-06 16:41:00,83.2,55.0,29.87,North,10,6.0,8.0,38,0.00,,,0.00,554,Wunderground v.1.15,2013-09-06 23:41:00,
2013-09-06 16:47:00,83.2,55.7,29.87,NE,37,6.0,9.0,39,0.00,,,0.00,536,Wunderground v.1.15,2013-09-06 23:47:00,
2013-09-06 16:52:00,83.2,55.7,29.87,NNE,18,6.0,7.0,39,0.00,,,0.00,520,Wunderground v.1.15,2013-09-06 23:52:00,
2013-09-06 16:58:00,83.1,55.6,29.87,NNE,29,7.0,11.0,39,0.00,,,0.00,501,Wunderground v.1.15,2013-09-06 23:58:00,
2013-09-06 17:03:00,82.8,55.3,29.87,North,355,8.0,12.0,39,0.00,,,0.00,487,Wunderground v.1.15,2013-09-07 00:03:00,
2013-09-06 17:08:00,82.7,55.2,29.87,North,5,8.0,12.0,39,0.00,,,0.00,469,Wunderground v.1.15,2013-09-07 00:08:00,
2013-09-06 17:14:00,82.6,55.1,29.86,NNE,30,7.0,9.0,39,0.00,,,0.00,450,Wunderground v.1.15,2013-09-07 00:14:00,
2013-09-06 17:19:00,82.6,55.8,29.86,North,351,6.0,9.0,40,0.00,,,0.00,434,Wunderground v.1.15,2013-09-07 00:19:00,
2013-09-06 17:25:00,82.6,55.1,29.86,NNE,28,6.0,10.0,39,0.00,,,0.00,415,Wunderground v.1.15,2013-09-07 00:25:00,
2013-09-06 17:30:00,82.4,55.7,29.86,North,5,6.0,8.0,40,0.00,,,0.00,399,Wunderground v.1.15,2013-09-07 00:30:00,
2013-09-06 17:35:00,82.3,55.6,29.86,NNE,18,7.0,9.0,40,0.00,,,0.00,380,Wunderground v.1.15,2013-09-07 00:35:00,
2013-09-06 17:41:00,82.1,55.4,29.86,North,351,7.0,7.0,40,0.00,,,0.00,360,Wunderground v.1.15,2013-09-07 00:41:00,
2013-09-06 17:46:00,82.1,55.4,29.86,NNE,27,5.0,9.0,40,0.00,,,0.00,343,Wunderground v.1.15,2013-09-07 00:46:00,
2013-09-06 17:52:00,81.9,55.9,29.86,North,360,5.0,6.0,41,0.00,,,0.00,323,Wunderground v.1.15,2013-09-07 00:52:00,
2013-09-06 17:57:00,81.9,55.9,29.86,NNE,12,5.0,8.0,41,0.00,,,0.00,304,Wunderground v.1.15,2013-09-07 00:57:00,
2013-09-06 18:02:00,81.5,55.5,29.86,NNE,27,6.0,8.0,41,0.00,,,0.00,288,Wunderground v.1.15,2013-09-07 01:02:00,
2013-09-06 18:08:00,81.2,55.3,29.86,NNE,13,5.0,8.0,41,0.00,,,0.00,267,Wunderground v.1.15,2013-09-07 01:08:00,
2013-09-06 18:14:00,81.0,55.7,29.86,NNE,25,4.0,6.0,42,0.00,,,0.00,246,Wunderground v.1.15,2013-09-07 01:14:00,
2013-09-06 18:20:00,80.8,55.6,29.86,NNE,22,4.0,4.0,42,0.00,,,0.00,227,Wunderground v.1.15,2013-09-07 01:20:00,
2013-09-06 18:25:00,80.6,55.4,29.86,NNE,22,3.0,4.0,42,0.00,,,0.00,209,Wunderground v.1.15,2013-09-07 01:25:00,
2013-09-06 18:31:00,80.5,55.3,29.86,NNE,19,4.0,5.0,42,0.00,,,0.00,186,Wunderground v.1.15,2013-09-07 01:31:00,
2013-09-06 18:36:00,80.3,55.8,29.86,NNE,21,4.0,5.0,43,0.00,,,0.00,165,Wunderground v.1.15,2013-09-07 01:36:00,
2013-09-06 18:41:00,80.1,55.6,29.85,NNE,22,2.0,3.0,43,0.00,,,0.00,141,Wunderground v.1.15,2013-09-07 01:41:00,
2013-09-06 18:46:00,80.0,57.4,29.85,NNW,342,2.0,4.0,46,0.00,,,0.00,123,Wunderground v.1.15,2013-09-07 01:46:00,
2013-09-06 18:52:00,79.5,56.9,29.85,NNW,342,1.0,2.0,46,0.00,,,0.00,98,Wunderground v.1.15,2013-09-07 01:52:00,
2013-09-06 18:57:00,79.2,56.6,29.86,NNW,342,0.0,2.0,46,0.00,,,0.00,81,Wunderground v.1.15,2013-09-07 01:57:00,
2013-09-06 19:02:00,78.9,55.8,29.86,NNW,342,0.0,0.0,45,0.00,,,0.00,63,Wunderground v.1.15,2013-09-07 02:02:00,
2013-09-06 19:08:00,78.6,56.7,29.86,North,355,0.0,0.0,47,0.00,,,0.00,44,Wunderground v.1.15,2013-09-07 02:08:00,
2013-09-06 19:13:00,78.2,56.3,29.85,North,355,0.0,0.0,47,0.00,,,0.00,32,Wunderground v.1.15,2013-09-07 02:13:00,
2013-09-06 19:18:00,77.9,56.6,29.85,North,355,0.0,0.0,48,0.00,,,0.00,19,Wunderground v.1.15,2013-09-07 02:18:00,
2013-09-06 19:24:00,77.4,56.2,29.86,North,355,0.0,0.0,48,0.00,,,0.00,11,Wunderground v.1.15,2013-09-07 02:24:00,
2013-09-06 19:30:00,76.9,56.3,29.85,North,355,0.0,0.0,49,0.00,,,0.00,7,Wunderground v.1.15,2013-09-07 02:30:00,
2013-09-06 19:35:00,76.5,54.8,29.85,North,11,0.0,0.0,47,0.00,,,0.00,0,Wunderground v.1.15,2013-09-07 02:35:00,
2013-09-06 19:41:00,76.2,55.1,29.85,North,11,0.0,0.0,48,0.00,,,0.00,0,Wunderground v.1.15,2013-09-07 02:41:00,
2013-09-06 19:46:00,76.0,53.7,29.85,NNE,27,0.0,0.0,46,0.00,,,0.00,0,Wunderground v.1.15,2013-09-07 02:46:00,
2013-09-06 19:52:00,76.0,53.1,29.85,NNE,27,0.0,0.0,45,0.00,,,0.00,0,Wunderground v.1.15,2013-09-07 02:52:00,
2013-09-06 19:57:00,75.9,52.4,29.85,NNE,28,0.0,0.0,44,0.00,,,0.00,0,Wunderground v.1.15,2013-09-07 02:57:00,
2013-09-06 20:03:00,75.9,52.4,29.85,NNE,27,0.0,0.0,44,0.00,,,0.00,0,Wunderground v.1.15,2013-09-07 03:03:00,
2013-09-06 20:08:00,75.8,52.3,29.85,NNE,27,0.0,0.0,44,0.00,,,0.00,0,Wunderground v.1.15,2013-09-07 03:08:00,
2013-09-06 20:14:00,75.8,52.3,29.86,NNE,27,0.0,0.0,44,0.00,,,0.00,0,Wunderground v.1.15,2013-09-07 03:14:00,
2013-09-06 20:20:00,75.8,51.7,29.86,NNE,27,0.0,0.0,43,0.00,,,0.00,0,Wunderground v.1.15,2013-09-07 03:20:00,
2013-09-06 20:25:00,75.8,51.1,29.86,NNE,27,0.0,0.0,42,0.00,,,0.00,0,Wunderground v.1.15,2013-09-07 03:25:00,
2013-09-06 20:31:00,75.9,51.2,29.86,NNE,27,0.0,0.0,42,0.00,,,0.00,0,Wunderground v.1.15,2013-09-07 03:31:00,
2013-09-06 20:36:00,76.0,51.2,29.86,NNE,27,0.0,0.0,42,0.00,,,0.00,0,Wunderground v.1.15,2013-09-07 03:36:00,
2013-09-06 20:41:00,76.0,51.2,29.86,NNE,27,0.0,0.0,42,0.00,,,0.00,0,Wunderground v.1.15,2013-09-07 03:41:00,
2013-09-06 20:47:00,76.0,51.9,29.87,NNE,27,0.0,0.0,43,0.00,,,0.00,0,Wunderground v.1.15,2013-09-07 03:47:00,
2013-09-06 20:52:00,75.9,51.8,29.87,NNE,27,0.0,3.0,43,0.00,,,0.00,0,Wunderground v.1.15,2013-09-07 03:52:00,
2013-09-06 20:58:00,75.7,52.2,29.87,NNE,27,0.0,3.0,44,0.00,,,0.00,0,Wunderground v.1.15,2013-09-07 03:58:00,
2013-09-06 21:01:00,75.6,52.1,29.87,NE,34,1.0,1.0,44,0.00,,,0.00,0,Wunderground v.1.15,2013-09-07 04:01:00,
2013-09-06 21:02:00,75.6,52.1,29.87,NE,34,1.0,1.0,44,0.00,,,0.00,0,Wunderground v.1.15,2013-09-07 04:02:00,
2013-09-06 21:03:00,75.5,52.1,29.87,NE,55,0.0,4.0,44,0.00,,,0.00,0,Wunderground v.1.15,2013-09-07 04:03:00,
2013-09-06 21:04:00,75.5,52.1,29.87,NE,55,1.0,4.0,44,0.00,,,0.00,0,Wunderground v.1.15,2013-09-07 04:04:00,
2013-09-06 21:06:00,75.5,52.1,29.87,ENE,61,1.0,4.0,44,0.00,,,0.00,0,Wunderground v.1.15,2013-09-07 04:06:00,
2013-09-06 21:12:00,75.4,52.0,29.87,ENE,78,3.0,3.0,44,0.00,,,0.00,0,Wunderground v.1.15,2013-09-07 04:12:00,
2013-09-06 21:15:00,75.5,52.1,29.87,ENE,78,3.0,5.0,44,0.00,,,0.00,0,Wunderground v.1.15,2013-09-07 04:15:00,
2013-09-06 21:20:00,75.8,51.1,29.87,ENE,78,3.0,3.0,42,0.00,,,0.00,0,Wunderground v.1.15,2013-09-07 04:20:00,
2013-09-06 21:25:00,76.2,51.4,29.87,ENE,78,2.0,3.0,42,0.00,,,0.00,0,Wunderground v.1.15,2013-09-07 04:25:00,
2013-09-06 21:31:00,76.6,51.1,29.87,ENE,78,2.0,4.0,41,0.00,,,0.00,0,Wunderground v.1.15,2013-09-07 04:31:00,
2013-09-06 21:36:00,77.1,50.2,29.87,ENE,78,3.0,5.0,39,0.00,,,0.00,0,Wunderground v.1.15,2013-09-07 04:36:00,
2013-09-06 21:42:00,77.8,49.4,29.87,East,94,4.0,6.0,37,0.00,,,0.00,0,Wunderground v.1.15,2013-09-07 04:42:00,
2013-09-06 21:47:00,78.3,49.1,29.87,East,94,4.0,6.0,36,0.00,,,0.00,0,Wunderground v.1.15,2013-09-07 04:47:00,
2013-09-06 21:52:00,78.6,49.4,29.87,East,94,2.0,3.0,36,0.00,,,0.00,0,Wunderground v.1.15,2013-09-07 04:52:00,
2013-09-06 21:58:00,78.7,51.0,29.87,East,94,0.0,3.0,38,0.00,,,0.00,0,Wunderground v.1.15,2013-09-07 04:58:00,
2013-09-06 22:03:00,78.5,50.1,29.87,East,94,0.0,0.0,37,0.00,,,0.00,0,Wunderground v.1.15,2013-09-07 05:03:00,
2013-09-06 22:09:00,78.3,51.3,29.87,East,94,0.0,0.0,39,0.00,,,0.00,0,Wunderground v.1.15,2013-09-07 05:09:00,
2013-09-06 22:14:00,77.9,50.9,29.87,East,94,0.0,0.0,39,0.00,,,0.00,0,Wunderground v.1.15,2013-09-07 05:14:00,
2013-09-06 22:19:00,77.5,51.3,29.87,East,94,0.0,0.0,40,0.00,,,0.00,0,Wunderground v.1.15,2013-09-07 05:19:00,
2013-09-06 22:25:00,76.9,51.4,29.87,East,94,0.0,0.0,41,0.00,,,0.00,0,Wunderground v.1.15,2013-09-07 05:25:00,
2013-09-06 22:30:00,76.4,51.6,29.87,East,94,0.0,0.0,42,0.00,,,0.00,0,Wunderground v.1.15,2013-09-07 05:30:00,
2013-09-06 22:36:00,76.0,51.2,29.86,East,94,0.0,0.0,42,0.00,,,0.00,0,Wunderground v.1.15,2013-09-07 05:36:00,
2013-09-06 22:42:00,75.7,50.3,29.86,East,94,0.0,0.0,41,0.00,,,0.00,0,Wunderground v.1.15,2013-09-07 05:42:00,
2013-09-06 22:47:00,75.7,50.3,29.86,East,94,0.0,0.0,41,0.00,,,0.00,0,Wunderground v.1.15,2013-09-07 05:47:00,
2013-09-06 22:52:00,75.6,50.2,29.86,East,94,0.0,0.0,41,0.00,,,0.00,0,Wunderground v.1.15,2013-09-07 05:52:00,
2013-09-06 22:58:00,75.7,50.3,29.86,East,94,0.0,0.0,41,0.00,,,0.00,0,Wunderground v.1.15,2013-09-07 05:58:00,
2013-09-06 23:03:00,75.9,49.8,29.86,East,94,0.0,0.0,40,0.00,,,0.00,0,Wunderground v.1.15,2013-09-07 06:03:00,
2013-09-06 23:08:00,76.0,49.9,29.86,East,94,0.0,0.0,40,0.00,,,0.00,0,Wunderground v.1.15,2013-09-07 06:08:00,
2013-09-06 23:14:00,76.0,49.2,29.86,East,94,0.0,0.0,39,0.00,,,0.00,0,Wunderground v.1.15,2013-09-07 06:14:00,
2013-09-06 23:19:00,76.0,49.2,29.86,East,94,0.0,0.0,39,0.00,,,0.00,0,Wunderground v.1.15,2013-09-07 06:19:00,
2013-09-06 23:25:00,76.1,48.6,29.86,East,94,0.0,0.0,38,0.00,,,0.00,0,Wunderground v.1.15,2013-09-07 06:25:00,
2013-09-06 23:30:00,76.1,48.6,29.86,East,94,0.0,0.0,38,0.00,,,0.00,0,Wunderground v.1.15,2013-09-07 06:30:00,
2013-09-06 23:35:00,76.1,48.6,29.86,East,94,0.0,0.0,38,0.00,,,0.00,0,Wunderground v.1.15,2013-09-07 06:35:00,
2013-09-06 23:41:00,75.9,48.5,29.86,East,94,0.0,0.0,38,0.00,,,0.00,0,Wunderground v.1.15,2013-09-07 06:41:00,
2013-09-06 23:46:00,75.8,49.1,29.86,East,94,0.0,0.0,39,0.00,,,0.00,0,Wunderground v.1.15,2013-09-07 06:46:00,
2013-09-06 23:52:00,75.5,49.5,29.86,East,94,0.0,0.0,40,0.00,,,0.00,0,Wunderground v.1.15,2013-09-07 06:52:00,
2013-09-06 23:57:00,75.3,47.9,29.86,East,94,0.0,0.0,38,0.00,,,0.00,0,Wunderground v.1.15,2013-09-07 06:57:00,